sat.trackr.live / text

‹ back to catalog

INTELSAT 31 (IS-31)

NORAD 41581 · 2016-035A

PAYLOAD ACTIVE UNKNOWN

§ Identity

Operator
Country
ITSO
Launch date
2016-06-09
Launch site
TYMSC
Launch vehicle
Mass (kg)
RCS (m²)
7.89

Purposes: comms

External: N2YO · Heavens-Above · Gunter

§ Orbital elements

Epoch: 2026-05-24T13:36:08.915904Z

Period
1,436.07 min
Inclination
0.0128°
Eccentricity
0.0001209
Mean motion
1.00273589 rev/d
Perigee alt
35,781.0 km
Apogee alt
35,791.2 km
Semi-major
42,164.2 km
B*
0.0000e+0
RAAN
255.2233°
Arg perigee
17.5633°
Mean anomaly
78.3655°
Rev number
3,644

§ Raw data

INTELSAT 31 (IS-31)1 41581U 16035A   26144.56676986 -.00000155  00000+0  00000+0 0  99942 41581   0.0128 255.2233 0001209  17.5633  78.3655  1.00273589 36447

JSON: /api/v1/satellites/41581 · /tle

For live sub-satellite position, see the globe view (requires WebGL).

§ Visibility from observer

Set your observer location to see the next 7 days of passes ≥ 10°. The values pass through the URL so the page stays shareable.

No JS? Fill the form by hand. The geolocation button needs JavaScript.